Regional Weather Roundup
Issued by NWS Northern Indiana

Home | Current Version | Previous Version | Text Only | Print | Product List | Glossary Off
Versions: 1 2 3 4 5 6 7 8 9 10 11 12 13 14 15 16 17 18 19 20 21 22 23 24 25 26 27 28 29 30 31 32 33 34 35 36 37 38 39 40 41 42 43 44 45 46 47 48 49 50

000
ASUS43 KIWX 260300
RWRIWX

KIWX WEATHER ROUNDUP
NATIONAL WEATHER SERVICE NORTHERN INDIANA
1100 PM EDT WED MAY 25 2016

NOTE: "FAIR" INDICATES FEW OR NO CLOUDS BELOW 12,000 FEET WITH NO
SIGNIFICANT WEATHER AND/OR OBSTRUCTIONS TO VISIBILITY.

* THESE STATIONS ARE NOT UNDER NWS QUALITY CONTROL. THEY ALSO MAY NOT
  REPORT WEATHER SUCH AS PRECIPITATION OR FOG.

INZ001>027-260400-
NORTHERN INDIANA

CITY           SKY/WX    TMP DP  RH WIND       PRES   REMARKS
GARY*          MOCLDY    66  66 100 VRB5      29.98R
SOUTH BEND     CLOUDY    70  63  78 NW13      29.98R
GOSHEN         CLOUDY    76  59  55 S9        29.97R
ANGOLA*        PTCLDY    70  63  78 CALM      29.99R
FORT WAYNE     CLOUDY    77  61  57 S10       30.01R
PERU/GRISSOM   CLOUDY    74  62  66 SW12      30.00R

$$
INZ028>050-260400-
CENTRAL INDIANA

CITY           SKY/WX    TMP DP  RH WIND       PRES   REMARKS
LAFAYETTE      CLOUDY    72  61  68 SW6       30.00R
KOKOMO*        CLOUDY    73  61  64 SW9       30.01R
MUNCIE*        CLOUDY    76  62  62 S6        30.03R
INDIANAPOLIS   CLOUDY    73  62  68 S10       30.02R

$$
MIZ043>046-050>051-056>058-064>065-071>073-077>080-260400-
SOUTHWEST LOWER MICHIGAN

CITY           SKY/WX    TMP DP  RH WIND       PRES   REMARKS
BATTLE CREEK   PTCLDY    75  59  57 SE8       29.97S
BENTON HARBOR  TSTM      65  62  90 W10       30.00R FOG
COLDWATER*     CLOUDY    73  60  63 SE5       29.97F
HILLSDALE*     PTCLDY    72  53  51 SE6       30.00S
HOLLAND        LGT RAIN  67  61  81 W10       29.96F
GRAND RAPIDS   MOCLDY    74  60  61 W12       29.96R
KALAMAZOO      MOCLDY    74  60  61 W5        29.96R
STURGIS*       CLOUDY    76  60  59 S8        29.96S
THREE RIVERS*  CLOUDY    72  65  79 CALM      29.96F

$$
OHZ001>008-015>018-024>025-260400-
NORTHWEST OHIO

CITY           SKY/WX    TMP DP  RH WIND       PRES   REMARKS
DEFIANCE       PTCLDY    77  59  53 S14       30.00R
FINDLAY        CLEAR     72  58  61 S12       30.03R
TOLEDO EXPRESS CLOUDY    75  58  55 S9        30.00R
TOLEDO METCALF CLOUDY    74  58  57 S12       30.02R
LIMA           CLEAR     72  61  68 S7        30.04R

$$
AND FOR LAKE MICHIGAN COASTAL AND OPEN LAKE BUOY OBSERVATIONS

STATION/POSITION TEMP    WIND        PRES    VSBY  WAVE
                 AIR SEA DIR/SP/G                  HT/PER
                 (F)     (DEG/KT/KT) (MB)    (MI)  (FT/S)
CALUMET HARBOR           300/  4/  7 1014.1R
MICHIGAN CITY     63     330/ 11/ 12   N/A
BURNS HARBOR      62      50/  8/ 13 1014.9R
SAINT JOSEPH      65     230/  7/ 13 1015.9R
SOUTH LAKE BUOY   58 51  150/ 14/ 16 1013.4          1
4 MI NW BRIDGMAN  63 60  360/  4/ 10   N/A           2
MICHIGAN CITY     65 60   10/  6/ 12   N/A           1/ 2

$$
&&




USA.gov is the U.S. government's official web portal to all federal, state and local government web resources and services.